Find Starlink 32793

NORAD ID: 62874 Int'l Des: 2025-022 Owner: SPXS Country: US Constellation: starlink operational
LEOCIRCULAR

实时位置

正在加载3D地球...

关于 Starlink 32793

正在加载描述...

即将过境

Passes for default location (London). Set your location on the main map for personalized predictions.

高度历史

Loading altitude history...

两行轨道根数

1 62874U 25022W 26124.50296131 .00020417 00000-0 69972-3 0 9990
2 62874 53.1584 230.4961 0001306 30.5942 329.5134 15.30193336 70449
Epoch: May 4, 2026 • Age: 12 hours

当前状态

高度 478.5 km
速度 7.63 km/s
星下点 38.02°N, 155.63°E
发射日期 Feb 2, 2025
运行时间 1.2 years
类型 internet

技术详情

分类 Payload
质量 730.00 kg
干质量 700.00 kg
总质量 730.00 kg
长度 0.30 m
直径 4.10 m
跨度 29.00 m
形状 Box + pan
制造商 SPXS
平台类型 Starlink V2M
阶段状态 In Orbit
所有者/国家 SPXS/US

Most Searched